FW4435 Weather Reports


Display with metric or nautical units.
time (UTC)temp
F
wind
direction
speed
MPH
gust
MPH
rain 1hr
in
rain 24hr
in
rain mn
in
humidity
%
barometer
mb
20260506231423 45 75 3.0 3.0 0.00 0.67 0.67 98 1005.8
20260506230921 45 31 8.0 10.0 0.00 0.67 0.67 98 1005.8
20260506230417 45 136 0.0 1.0 0.00 0.67 0.67 98 1005.3
20260506225914 45 36 2.0 2.0 0.00 0.67 0.67 98 1005.3
20260506225411 45 103 2.0 2.0 0.00 0.67 0.67 98 1005.8
20260506224908 45 50 1.0 2.0 0.00 0.67 0.67 98 1005.3
20260506224405 46 343 3.0 4.0 0.00 0.67 0.67 98 1005.3
20260506223901 46 94 0.0 1.0 0.00 0.67 0.67 98 1005.3
20260506223356 46 81 7.0 9.0 0.00 0.67 0.67 98 1005.0
20260506222854 46 153 0.0 0.0 0.00 0.67 0.67 98 1005.3
20260506222350 46 131 1.0 1.0 0.00 0.67 0.67 98 1005.3
20260506221848 46 155 0.0 0.0 0.00 0.67 0.67 98 1005.0
20260506221345 46 95 2.0 2.0 0.00 0.67 0.67 98 1005.0
20260506220842 46 108 0.0 0.0 0.00 0.67 0.67 98 1005.0
20260506220338 46 45 4.0 6.0 0.00 0.67 0.67 98 1005.3
20260506215835 46 39 2.0 2.0 0.00 0.67 0.67 98 1005.0
20260506215330 46 109 1.0 1.0 0.00 0.67 0.67 98 1004.6
20260506214827 46 44 4.0 4.0 0.00 0.67 0.67 98 1004.6
20260506214324 46 79 2.0 3.0 0.00 0.67 0.67 98 1005.0
20260506213822 47 75 3.0 3.0 0.00 0.67 0.67 98 1004.6
20260506213319 47 97 2.0 3.0 0.00 0.67 0.67 98 1004.6
20260506212816 47 76 1.0 2.0 0.00 0.67 0.67 98 1004.6
20260506212312 48 82 3.0 4.0 0.00 0.67 0.67 98 1004.6
20260506211807 48 105 1.0 1.0 0.00 0.67 0.67 99 1004.6
20260506211303 48 342 4.0 4.0 0.00 0.67 0.67 98 1005.0
20260506210801 48 68 3.0 3.0 0.00 0.67 0.67 98 1005.0
20260506210257 49 69 1.0 1.0 0.00 0.67 0.67 98 1004.6
20260506205754 50 79 2.0 3.0 0.00 0.67 0.67 98 1004.6
20260506205250 50 6 2.0 2.0 0.00 0.67 0.67 98 1004.6
20260506204747 50 175 1.0 2.0 0.00 0.67 0.67 98 1004.6
20260506204245 50 76 1.0 2.0 0.07 0.67 0.67 98 1004.3
20260506203742 51 75 0.0 1.0 0.12 0.67 0.67 98 1004.3
20260506203239 51 125 1.0 1.0 0.31 0.66 0.66 98 1004.3
20260506202736 53 338 5.0 6.0 0.43 0.64 0.64 98 1004.3
20260506202233 54 201 3.0 3.0 0.35 0.61 0.61 98 1004.0
20260506201730 57 304 4.0 4.0 0.24 0.57 0.57 98 1004.3
20260506201226 58 177 2.0 2.0 0.12 0.54 0.54 98 1004.0
20260506200723 58 250 3.0 3.0 0.05 0.53 0.53 98 1004.0
20260506200220 58 237 2.0 3.0 0.00 0.52 0.52 98 1004.0
20260506195716 58 163 2.0 2.0 0.00 0.52 0.52 98 1003.6
20260506195212 58 195 3.0 4.0 0.07 0.52 0.52 97 1004.0
20260506194705 58 204 2.0 2.0 0.05 0.51 0.51 97 1004.0
20260506194201 58 202 2.0 2.0 0.12 0.51 0.51 97 1004.0
20260506193658 58 179 2.0 4.0 0.14 0.50 0.50 97 1004.0
20260506193155 58 182 2.0 3.0 0.07 0.49 0.49 97 1004.3
20260506192652 58 173 2.0 3.0 0.00 0.48 0.48 98 1004.0
20260506192148 58 205 3.0 3.0 0.05 0.48 0.48 98 1004.3
20260506191646 58 168 1.0 1.0 0.05 0.48 0.48 98 1004.3
20260506191141 58 152 0.0 0.0 0.00 0.47 0.47 98 1004.3
20260506190639 57 208 4.0 4.0 0.00 0.47 0.47 98 1004.3
20260506190135 58 162 2.0 2.0 0.07 0.47 0.47 99 1004.0
20260506185633 58 156 1.0 2.0 0.07 0.47 0.47 99 1004.3
20260506185129 57 151 2.0 2.0 0.00 0.46 0.46 99 1004.3
20260506184626 57 156 0.0 1.0 0.00 0.46 0.46 99 1004.6
20260506184123 57 155 0.0 0.0 0.00 0.46 0.46 99 1004.3
20260506183620 57 160 0.0 1.0 0.00 0.46 0.46 99 1004.6
20260506183116 57 175 1.0 1.0 0.00 0.46 0.46 99 1004.6
20260506182614 57 175 2.0 2.0 0.00 0.46 0.46 99 1004.6
20260506182110 57 186 0.0 0.0 0.12 0.46 0.46 99 1004.6
20260506181609 56 113 1.0 1.0 0.12 0.45 0.45 99 1004.6
20260506181105 56 187 2.0 2.0 0.12 0.44 0.44 98 1005.0
20260506180602 56 117 0.0 1.0 0.12 0.43 0.43 98 1004.6
20260506180059 56 135 0.0 0.0 0.12 0.42 0.42 98 1005.0
20260506175555 56 159 0.0 0.0 0.12 0.41 0.41 98 1005.3
20260506175051 56 160 0.0 0.0 0.17 0.40 0.40 98 1005.3
20260506174550 56 158 1.0 1.0 0.19 0.38 0.38 97 1005.3
20260506174046 56 169 0.0 0.0 0.19 0.37 0.37 97 1005.3
20260506173544 56 179 1.0 1.0 0.17 0.35 0.35 97 1005.3
20260506173040 56 172 0.0 0.0 0.17 0.33 0.33 97 1005.3
20260506172538 56 188 1.0 1.0 0.19 0.32 0.32 97 1005.3
20260506172034 56 189 1.0 2.0 0.24 0.30 0.30 97 1005.8
20260506171531 56 178 5.0 6.0 0.31 0.28 0.28 97 1005.8
20260506171029 56 156 2.0 2.0 0.26 0.26 0.26 97 1006.1
20260506170526 56 162 1.0 1.0 0.19 0.23 0.23 97 1005.8
20260506170023 56 167 1.0 1.0 0.17 0.22 0.22 96 1005.8
20260506165522 56 162 0.0 0.0 0.24 0.20 0.20 96 1005.8
20260506165018 56 160 2.0 2.0 0.50 0.19 0.19 95 1006.1
20260506164514 57 210 1.0 1.0 0.19 0.13 0.13 95 1006.1
20260506164012 57 195 1.0 1.0 0.05 0.11 0.11 95 1005.8
20260506163508 57 160 1.0 1.0 0.07 0.10 0.10 94 1005.8
20260506163004 57 133 0.0 0.0 0.12 0.10 0.10 95 1005.8
20260506162500 57 164 2.0 3.0 0.05 0.09 0.09 94 1006.1
20260506161957 57 197 1.0 1.0 0.07 0.08 0.08 94 1006.1
20260506161455 56 183 4.0 4.0 0.05 0.07 0.07 94 1006.1
20260506160952 56 189 1.0 2.0 0.05 0.07 0.07 94 1006.4
20260506160449 56 220 1.0 2.0 0.00 0.06 0.06 94 1006.4
20260506155946 56 192 4.0 4.0 0.07 0.06 0.06 93 1006.4
20260506155444 56 193 2.0 2.0 0.07 0.06 0.06 94 1006.4
20260506153611 56 126 1.0 1.0 0.05 0.05 0.05 94 1006.8
20260506153108 56 206 4.0 6.0 0.00 0.04 0.04 93 1006.8
20260506152605 56 150 0.0 1.0 0.00 0.04 0.04 94 1006.8
20260506152103 55 206 4.0 4.0 0.00 0.04 0.04 93 1007.1
20260506151601 55 174 1.0 1.0 0.07 0.04 0.04 93 1007.1
20260506151058 55 191 1.0 1.0 0.07 0.04 0.04 93 1007.1
20260506150554 55 190 2.0 2.0 0.00 0.03 0.03 93 1007.4
20260506150051 55 181 3.0 3.0 0.00 0.03 0.03 93 1007.1
20260506145548 55 181 1.0 1.0 0.05 0.03 0.03 93 1007.4
20260506145045 55 191 1.0 1.0 0.05 0.03 0.03 93 1007.1
20260506144542 55 195 2.0 2.0 0.00 0.02 0.02 93 1007.1
20260506144039 55 223 3.0 3.0 0.07 0.02 0.02 92 1007.4
20260506143537 55 168 1.0 2.0 0.07 0.02 0.02 92 1007.4
20260506143035 56 179 1.0 1.0 0.05 0.01 0.01 91 1007.4
20260506142532 56 168 0.0 1.0 0.05 0.01 0.01 91 1007.4
20260506142031 56 186 1.0 1.0 0.00 0.00 0.00 90 1007.1
20260506141528 56 223 4.0 4.0 0.00 0.00 0.00 90 1007.1
20260506141026 56 184 2.0 2.0 0.00 0.00 0.00 90 1007.1
20260506140523 56 171 2.0 3.0 0.00 0.00 0.00 89 1007.1
20260506140020 56 184 3.0 3.0 0.00 0.00 0.00 89 1007.1
20260506135517 56 202 2.0 3.0 0.00 0.00 0.00 89 1007.4
20260506135013 55 177 3.0 3.0 0.00 0.00 0.00 90 1007.1
20260506134510 55 201 3.0 3.0 0.00 0.00 0.00 90 1007.1
20260506134006 55 176 0.0 1.0 0.00 0.00 0.00 90 1007.1
20260506133503 55 201 2.0 3.0 0.00 0.00 0.00 90 1007.1
20260506133000 55 170 0.0 0.0 0.00 0.00 0.00 90 1007.1
20260506132457 55 179 0.0 1.0 0.00 0.00 0.00 91 1007.4
20260506131954 55 172 2.0 2.0 0.00 0.00 0.00 91 1007.4
20260506131451 55 208 3.0 4.0 0.00 0.00 0.00 91 1007.4
20260506130948 55 201 4.0 4.0 0.00 0.00 0.00 91 1007.4
20260506130444 55 201 4.0 6.0 0.00 0.00 0.00 91 1007.8
20260506125942 55 206 3.0 3.0 0.00 0.00 0.00 91 1007.8
20260506125440 55 206 4.0 6.0 0.00 0.00 0.00 91 1007.8
20260506124938 55 195 4.0 4.0 0.00 0.00 0.00 91 1007.4
20260506124435 55 180 1.0 1.0 0.00 0.00 0.00 91 1007.4
20260506123933 55 105 1.0 1.0 0.00 0.00 0.00 90 1007.4
20260506123431 55 180 1.0 2.0 0.00 0.00 0.00 90 1007.4
20260506122929 55 181 4.0 4.0 0.00 0.00 0.00 90 1007.4
20260506122425 55 190 3.0 3.0 0.00 0.00 0.00 90 1007.4
20260506121924 55 190 4.0 4.0 0.00 0.00 0.00 90 1007.4
20260506121420 55 190 4.0 4.0 0.00 0.00 0.00 90 1007.8
20260506120917 55 249 4.0 6.0 0.00 0.00 0.00 90 1007.8
20260506120414 55 213 1.0 2.0 0.00 0.00 0.00 90 1007.8
20260506115912 55 174 2.0 2.0 0.00 0.00 0.00 90 1007.4
20260506115410 55 189 4.0 4.0 0.00 0.00 0.00 90 1007.8
20260506114908 55 246 5.0 7.0 0.00 0.00 0.00 90 1007.8
20260506114405 55 213 2.0 2.0 0.00 0.00 0.00 90 1007.8
20260506113904 55 191 2.0 2.0 0.00 0.00 0.00 90 1007.4
20260506113401 55 208 7.0 11.0 0.00 0.00 0.00 90 1007.8
20260506112857 55 212 5.0 7.0 0.00 0.00 0.00 91 1007.4
20260506112354 54 206 5.0 6.0 0.00 0.00 0.00 93 1007.4
20260506111851 54 194 4.0 4.0 0.00 0.00 0.00 95 1007.4
20260506111350 53 184 2.0 3.0 0.00 0.00 0.00 96 1007.4
20260506110847 53 207 2.0 2.0 0.00 0.00 0.00 97 1007.4
20260506110344 53 198 0.0 0.0 0.00 0.00 0.00 97 1007.4
20260506105841 53 198 3.0 3.0 0.00 0.00 0.00 97 1007.8
20260506105337 52 185 0.0 0.0 0.00 0.00 0.00 97 1008.1
20260506104835 52 187 0.0 1.0 0.00 0.00 0.00 97 1007.8
20260506104332 51 160 2.0 2.0 0.00 0.00 0.00 97 1007.4
20260506103830 51 163 0.0 0.0 0.00 0.00 0.00 97 1007.8
20260506103327 51 188 1.0 1.0 0.00 0.00 0.00 96 1007.4
20260506102825 52 181 0.0 0.0 0.00 0.00 0.00 96 1007.4
20260506102322 52 161 0.0 0.0 0.00 0.00 0.00 96 1007.4
20260506101820 51 167 0.0 0.0 0.00 0.00 0.00 96 1007.8
20260506101315 51 180 0.0 1.0 0.00 0.00 0.00 96 1007.4
20260506100814 51 155 0.0 0.0 0.00 0.00 0.00 96 1007.4
20260506100312 51 177 1.0 1.0 0.00 0.00 0.00 96 1007.8
20260506095810 51 166 0.0 0.0 0.00 0.00 0.00 96 1007.8
20260506095306 51 161 0.0 0.0 0.00 0.00 0.00 96 1007.4
20260506094803 51 170 1.0 1.0 0.00 0.00 0.00 95 1007.8
20260506094302 52 170 1.0 1.0 0.00 0.00 0.00 95 1007.8
20260506093800 51 157 1.0 1.0 0.00 0.00 0.00 95 1007.4
20260506093256 51 167 0.0 0.0 0.00 0.00 0.00 95 1007.8
20260506092754 51 169 0.0 0.0 0.00 0.00 0.00 95 1007.8
20260506092252 51 166 0.0 0.0 0.00 0.00 0.00 95 1007.8
20260506091749 52 165 1.0 1.0 0.00 0.00 0.00 95 1007.4
20260506091246 52 166 1.0 1.0 0.00 0.00 0.00 95 1007.8
20260506090744 52 209 2.0 2.0 0.00 0.00 0.00 94 1007.8
20260506090241 52 166 0.0 0.0 0.00 0.00 0.00 94 1007.8
20260506085738 52 160 0.0 1.0 0.00 0.00 0.00 94 1008.1
20260506085234 52 162 1.0 1.0 0.00 0.00 0.00 94 1007.8
20260506084731 52 176 0.0 0.0 0.00 0.00 0.00 94 1008.1
20260506084227 52 176 0.0 0.0 0.00 0.00 0.00 94 1008.1
20260506083724 52 172 0.0 0.0 0.00 0.00 0.00 94 1008.1
20260506083222 52 172 0.0 0.0 0.00 0.00 0.00 94 1008.6
20260506082719 52 172 0.0 0.0 0.00 0.00 0.00 94 1008.6
20260506082214 52 172 1.0 1.0 0.00 0.00 0.00 94 1008.6
20260506081712 52 164 0.0 1.0 0.00 0.00 0.00 94 1008.6
20260506081210 53 171 0.0 1.0 0.00 0.00 0.00 94 1008.6
20260506080708 53 173 1.0 1.0 0.00 0.00 0.00 94 1008.1
20260506080204 53 158 2.0 2.0 0.00 0.00 0.00 94 1008.1
20260506073148 54 209 1.0 1.0 0.00 0.00 0.00 93 1008.1
20260506072644 55 175 1.0 2.0 0.00 0.00 0.00 93 1008.1
20260506072142 55 163 0.0 0.0 0.00 0.00 0.00 92 1008.1
20260506071640 55 151 1.0 1.0 0.00 0.00 0.00 91 1008.1
20260506071137 56 157 0.0 0.0 0.00 0.00 0.00 91 1008.1
20260506070634 56 196 1.0 1.0 0.00 0.00 0.00 89 1008.1
20260506070131 56 204 2.0 3.0 0.00 0.00 0.00 87 1008.1
20260506062109 56 252 2.0 2.0 0.00 0.00 0.00 95 1008.6
20260506061604 56 157 1.0 1.0 0.00 0.00 0.00 95 1008.1
20260506061102 56 148 0.0 1.0 0.00 0.00 0.00 95 1008.1
20260506060600 56 161 0.0 0.0 0.00 0.00 0.00 95 1008.1
20260506051029 56 219 3.0 3.0 0.00 0.00 0.00 95 1008.6
20260506050527 56 170 0.0 0.0 0.00 0.00 0.00 95 1008.6
20260506045017 55 195 2.0 2.0 0.00 0.00 0.00 96 1008.6
20260506044515 56 155 1.0 1.0 0.00 0.00 0.00 95 1008.6
20260506044012 56 163 2.0 2.0 0.00 0.00 0.00 95 1008.1
20260506043509 56 139 1.0 1.0 0.00 0.00 0.00 95 1008.6
20260506043007 56 168 0.0 0.0 0.00 0.00 0.00 94 1008.6
20260506042506 56 165 1.0 1.0 0.00 0.00 0.00 94 1008.1
20260506042004 56 161 2.0 2.0 0.00 0.00 0.00 94 1008.6
20260506041502 56 192 0.0 0.0 0.00 0.00 0.00 93 1008.1
20260506040959 57 154 0.0 0.0 0.00 0.00 0.00 92 1008.1
20260506040456 57 159 1.0 1.0 0.07 0.00 0.00 91 1008.1
20260506035952 57 182 1.0 2.0 0.07 0.13 0.13 90 1008.1
20260506035449 57 170 1.0 1.0 0.07 0.12 0.12 90 1007.8
20260506034945 57 152 0.0 0.0 0.12 0.12 0.12 88 1008.1
20260506034443 57 182 0.0 0.0 0.05 0.11 0.11 87 1007.8
20260506033940 57 171 0.0 0.0 0.00 0.10 0.10 85 1007.8
20260506033438 57 174 0.0 0.0 0.00 0.10 0.10 85 1008.1
20260506032934 57 194 0.0 0.0 0.00 0.10 0.10 85 1007.8
20260506032431 58 155 0.0 0.0 0.00 0.10 0.10 84 1007.8
20260506031928 57 176 0.0 0.0 0.00 0.10 0.10 84 1007.8
20260506031425 58 176 0.0 0.0 0.00 0.10 0.10 84 1007.4
20260506030923 58 176 0.0 0.0 0.00 0.10 0.10 84 1007.4
20260506030421 57 177 1.0 1.0 0.00 0.10 0.10 84 1007.4
20260506025917 57 174 2.0 2.0 0.00 0.10 0.10 86 1007.4
20260506025414 56 169 1.0 1.0 0.00 0.10 0.10 88 1007.4
20260506024911 56 177 0.0 0.0 0.00 0.10 0.10 88 1007.8
20260506024408 56 177 1.0 1.0 0.00 0.10 0.10 88 1007.4
20260506023904 56 160 0.0 0.0 0.00 0.10 0.10 87 1007.4
20260506023401 57 113 0.0 1.0 0.00 0.10 0.10 85 1007.4
20260506022857 58 161 1.0 1.0 0.00 0.10 0.10 84 1007.4
20260506022355 57 167 0.0 1.0 0.00 0.10 0.10 85 1007.4
20260506021853 57 186 1.0 1.0 0.00 0.10 0.10 85 1007.8
20260506021349 58 171 0.0 0.0 0.00 0.10 0.10 84 1007.4
20260506020846 57 164 0.0 1.0 0.00 0.10 0.10 84 1007.4
20260506020344 57 171 0.0 0.0 0.00 0.10 0.10 84 1007.4
20260506015841 57 155 0.0 0.0 0.00 0.10 0.10 83 1007.4
20260506015339 57 196 1.0 1.0 0.00 0.10 0.10 83 1007.4
20260506014836 57 144 1.0 1.0 0.00 0.10 0.10 85 1007.1
20260506014332 57 165 0.0 0.0 0.00 0.10 0.10 84 1007.1
20260506013829 57 183 0.0 1.0 0.00 0.10 0.10 85 1007.1
20260506013326 56 168 0.0 0.0 0.00 0.10 0.10 83 1006.8
20260506012823 57 173 1.0 1.0 0.00 0.10 0.10 84 1007.1
20260506012320 57 161 1.0 1.0 0.00 0.10 0.10 83 1006.8
20260506011817 57 164 2.0 2.0 0.00 0.10 0.10 86 1006.8
20260506011314 57 171 2.0 2.0 0.00 0.10 0.10 86 1007.1
20260506010811 58 176 0.0 0.0 0.00 0.10 0.10 86 1006.8
20260506010309 58 172 0.0 0.0 0.00 0.10 0.10 85 1007.1
20260506005806 59 171 0.0 0.0 0.00 0.10 0.10 82 1006.8
20260506005305 59 171 1.0 1.0 0.00 0.10 0.10 82 1006.8
20260506004758 60 171 0.0 0.0 0.00 0.10 0.10 82 1006.8
20260506004257 59 168 3.0 3.0 0.00 0.10 0.10 78 1006.8
20260506003752 59 155 0.0 0.0 0.00 0.10 0.10 82 1007.1
20260506003249 59 156 0.0 1.0 0.00 0.10 0.10 83 1006.8
20260506002745 61 196 1.0 1.0 0.00 0.10 0.10 80 1006.8
20260506002241 63 244 1.0 2.0 0.00 0.10 0.10 74 1006.8
20260506001737 62 173 2.0 3.0 0.00 0.10 0.10 72 1006.8
20260506001235 60 221 1.0 1.0 0.00 0.10 0.10 75 1006.8
20260506000731 60 137 2.0 2.0 0.00 0.10 0.10 79 1006.4
20260506000229 61 130 1.0 1.0 0.00 0.10 0.10 79 1006.4
20260505235726 62 183 0.0 1.0 0.00 0.10 0.10 76 1006.8
20260505235224 62 182 2.0 2.0 0.00 0.10 0.10 74 1006.8
20260505234720 62 183 1.0 1.0 0.00 0.10 0.10 74 1006.8
20260505234218 63 196 2.0 2.0 0.00 0.10 0.10 71 1006.8
20260505233714 63 186 2.0 3.0 0.00 0.10 0.10 70 1006.8
20260505233212 64 197 2.0 3.0 0.00 0.10 0.10 69 1006.8
20260505232709 63 197 1.0 1.0 0.00 0.10 0.10 71 1006.4
20260505232207 64 248 4.0 4.0 0.00 0.10 0.10 69 1006.4
20260505231703 64 210 4.0 4.0 0.00 0.10 0.10 69 1006.4